Regional Weather Roundup
Issued by NWS

Home | Current Version | Previous Version | Graphics & Text | Print | Product List | Glossary Off
Versions: 1 2 3 4 5 6 7 8 9 10 11 12 13 14 15 16 17 18 19 20 21 22 23 24 25 26 27 28 29 30 31 32 33 34 35 36 37 38 39 40 41 42 43 44 45 46 47 48 49 50

000
ASUS43 KTOP 261759
RWRKS

WEATHER ROUNDUP FOR KANSAS
NATIONAL WEATHER SERVICE GOODLAND KS
100 PM CDT WED APR 26 2017

NOTE:  "FAIR" INDICATES FEW OR NO CLOUDS BELOW 12,000 FEET WITH NO
SIGNIFICANT WEATHER AND/OR OBSTRUCTIONS TO VISIBILITY.

KSZ001>006-013>018-027>032-041>047-261900-
NORTHWEST KANSAS

CITY           SKY/WX    TMP DP  RH WIND       PRES   REMARKS
GOODLAND       SUNNY     49  31  49 N18G28    29.76F
6HR MIN TEMP:  30; 6HR MAX TEMP:  49; 6HR PCP: TRACE;

HAYS           CLOUDY    50  32  50 N15G22    29.75S
HILL CITY      PTSUNNY   51  31  46 N14G25    29.76F
6HR MIN TEMP:  34; 6HR MAX TEMP:  52;

RUSSELL        CLOUDY    49  32  52 N20       29.74R
6HR MIN TEMP:  38; 6HR MAX TEMP:  49;

$$

KSZ061>065-074>080-084>089-261900-
SOUTHWEST KANSAS

CITY           SKY/WX    TMP DP  RH WIND       PRES   REMARKS
DODGE CITY     SUNNY     51  30  44 N24G33    29.75S
6HR MIN TEMP:  38; 6HR MAX TEMP:  51;

GARDEN CITY    SUNNY     52  30  43 N24G32    29.76F
6HR MIN TEMP:  36; 6HR MAX TEMP:  52;

GREAT BEND     CLOUDY    48  34  58 N15       29.74F
LIBERAL        MOSUNNY   53  33  46 N18G29    29.78S
$$

KSZ066>073-081>083-090>101-261900-
SOUTHEAST KANSAS

CITY           SKY/WX    TMP DP  RH WIND       PRES   REMARKS
CHANUTE        LGT RAIN  45  40  82 N14       29.64F
6HR MIN TEMP:  44; 6HR MAX TEMP:  46; 6HR PCP:  0.05;

COFFEYVILLE    LGT RAIN  46  41  82 NW12      29.65S
6HR MIN TEMP:  45; 6HR MAX TEMP:  48; 6HR PCP:  0.01;

HUTCHINSON     CLOUDY    50  34  54 N16G25    29.70F
6HR MIN TEMP:  41; 6HR MAX TEMP:  50;

NEWTON         CLOUDY    46  35  65 N20G25    29.68F
PARSONS        LGT RAIN  46  41  82 N13       29.65F
6HR MIN TEMP:  45; 6HR MAX TEMP:  47; 6HR PCP:  0.03;

WICHITA INTL   CLOUDY    48  36  63 N15       29.69F
6HR MIN TEMP:  43; 6HR MAX TEMP:  49;

WICHITA JABRA  CLOUDY    48  37  65 NW20      29.68F
6HR MIN TEMP:  41; 6HR MAX TEMP:  48;

WINFIELD       CLOUDY    48  39  71 N18       29.69F
6HR MIN TEMP:  43; 6HR MAX TEMP:  48; 6HR PCP:  0.02;

$$

KSZ007>012-019>026-033>040-048>060-102>105-261900-
NORTHEAST KANSAS

CITY           SKY/WX    TMP DP  RH WIND       PRES   REMARKS
CONCORDIA      CLOUDY    48  35  60 N18G28    29.70F
6HR MIN TEMP:  38; 6HR MAX TEMP:  48;

EMPORIA        CLOUDY    48  38  68 NW16G23   29.65F
6HR MIN TEMP:  41; 6HR MAX TEMP:  49;

LAWRENCE       CLOUDY    47  39  74 NW14      29.66S
6HR MIN TEMP:  42; 6HR MAX TEMP:  48;

MANHATTAN      CLOUDY    48  35  60 VRB7      29.70S
6HR MIN TEMP:  41; 6HR MAX TEMP:  48;

OLATHE IND     CLOUDY    46  39  76 NW13      29.64F
6HR MIN TEMP:  41; 6HR MAX TEMP:  46;

OLATHE EXE     CLOUDY    45  40  82 NW15      29.63F
6HR MIN TEMP:  41; 6HR MAX TEMP:  46;

SALINA         CLOUDY    51  36  56 NW15      29.71F
6HR MIN TEMP:  42; 6HR MAX TEMP:  51;

TOPEKA BILLARD CLOUDY    49  38  65 NW14      29.66S
6HR MIN TEMP:  42; 6HR MAX TEMP:  50;

TOPEKA FORBES  CLOUDY    49  36  61 N14G23    29.64F
6HR MIN TEMP:  42; 6HR MAX TEMP:  51;

$$




USA.gov is the U.S. government's official web portal to all federal, state and local government web resources and services.